Miscellaneous Local Product
Issued by NWS North Platte, NE

Home | Current Version | Previous Version | Graphics & Text | Print | Product List | Glossary On
Versions: 1 2 3 4 5 6 7 8 9 10 11 12 13 14 15 16 17 18 19 20 21 22 23 24 25 26 27 28 29 30 31 32 33 34 35 36 37 38 39 40 41 42 43 44 45 46 47 48 49 50
500
AXUS43 KLBF 142110
MISLBF


WESTERN AND NORTH CENTRAL NEBRASKA HOURLY WEATHER ROUNDUP
NATIONAL WEATHER SERVICE NORTH PLATTE NE
300 PM CST SUN JAN 14 2018

NOTE: "FAIR" INDICATES FEW OR NO CLOUDS BELOW 12,000 FEET WITH NO
SIGNIFICANT WEATHER AND/OR OBSTRUCTIONS TO VISIBILITY.

NOTE: STATIONS NOT REPORTING VARIABLES SUCH AS SKY/WEATHER OR
PRESSURE ARE PROVIDED BY RAWS AND APRS NETWORKS AND ARE NOT UNDER
NATIONAL WEATHER SERVICE QUALITY CONTROL.

...OBSERVATIONS IN AND NEAR THE EASTERN PANHANDLE OF NEBRASKA...

CITY           SKY/WX    TMP DP  RH WIND       PRES   REMARKS
PINE RIDGE     LGT RAIN  39  30  70 NW10      30.12S WCI  32
GORDON         LGT RAIN  37  32  81 N12G18    30.11R WCI  29
CHADRON        CLOUDY    42  28  57 NW18G25   30.15F
ALLIANCE       CLOUDY    37  31  78 W9        30.12F WCI  30
SIDNEY         CLOUDY    43  29  57 NW16      30.16F
CRESCENT LAKE    N/A     39  31  72 W8G16       N/A  WCI  33
$$

...OBSERVATIONS IN NORTHERN NEBRASKA AND FAR SOUTHERN SOUTH DAKOTA...

CITY           SKY/WX    TMP DP  RH WIND       PRES   REMARKS
WINNER         LGT SNOW  34  31  88 NW23G30   30.08R FOG     WCI  22
VALENTINE      LGT SNOW  35  33  92 NW7       30.09S FOG     WCI  29
AINSWORTH      LGT RAIN  34  34  97 NW22      30.08S WCI  23
O`NEILL        LGT RAIN  35  34  94 NW20G28   30.05S WCI  24
THEDFORD       CLOUDY    41  32  70 NW15      30.09S
BROKEN BOW     CLOUDY    41  30  65 W10       30.08F
ORD            CLOUDY    40  31  70 W12       30.06F WCI  33
ALBION         CLOUDY    36  30  79 W8        30.06F WCI  30
VALENTINE NWR    N/A     37  33  84 NW13G22     N/A  WCI  29
HALSEY           N/A     42  30  63 NW8         N/A
BUTTE            N/A     33  30  90 N20G28      N/A  WCI  21
CHAMBERS         N/A     39  34  82 W3          N/A
EWING            N/A     36  33  88 W14G22      N/A  WCI  27
$$

...OBSERVATIONS IN SOUTHWEST NEBRASKA AND FAR NORTHEAST COLORADO...

CITY           SKY/WX    TMP DP  RH WIND       PRES   REMARKS
WRAY           MOCLDY    50  28  43 NW16      30.18F
HOLYOKE        FAIR      52  30  43 NW13      30.17F
IMPERIAL       CLOUDY    48  33  56 NW9       30.15F
OGALLALA       CLOUDY    43  32  66 W14       30.15R
NORTH PLATTE   CLOUDY    42  33  70 W8        30.12F
MCCOOK         CLOUDY    46  34  62 W12       30.13F
LEXINGTON      CLOUDY    39  32  76 W7        30.12S WCI  34
STAPLETON        N/A     40  32  73 CALM        N/A
GOTHENBURG       N/A     42  32  67 W5          N/A
CALLAWAY         N/A     39  33  78 W10         N/A  WCI  32
$$

...OBSERVATIONS IN CENTRAL LINCOLN COUNTY AREA...

CITY           SKY/WX    TMP DP  RH WIND       PRES   REMARKS
N.P. AIRPORT   CLOUDY    42  33  70 W8        30.12F
N.P. DOWNTOWN    N/A     42  34  73 CALM        N/A
N.P. SOUTHEAST   N/A     42  33  70 W3          N/A
N.P. HILLCREST   N/A     42  35  75 W5          N/A
$$

...SOME OBSERVATIONS FROM AROUND THE REGION...

CITY           SKY/WX    TMP DP  RH WIND       PRES   REMARKS
DENVER         MOSUNNY   55  17  22 NW8       30.13F
BERTHOUD PASS  SNOW      14   3  62 NW48G59   30.23F VSB 1/2 WCI -11
GRAND JUNCTION SUNNY     47  26  44 CALM      30.37F
LARAMIE        SUNNY     45  12  26 W22       30.18F
CHEYENNE       CLOUDY    48  17  29 NW15G25   30.16F
CASPER         CLOUDY    44  20  38 W15       30.21F
BISMARCK       LGT SNOW  13   7  77 NW20G29   30.20R WCI  -5
RAPID CITY     LGT SNOW  34  30  86 N29G40    30.12S FOG     WCI  20
PIERRE         CLOUDY    30  24  78 NW20G29   30.09R WCI  17
SIOUX FALLS    LGT SNOW  25  22  88 SW8       30.00F VSB 1   WCI  16
OMAHA          CLOUDY    25  19  78 S10       30.14F WCI  15
GRAND ISLAND   CLOUDY    35  30  82 W14       30.10F WCI  26
SCOTTSBLUFF    CLOUDY    40  30  67 W9        30.16F WCI  34
KANSAS CITY    CLOUDY    29  21  72 SW13      30.25S WCI  19
HILL CITY      SUNNY     51  31  46 W13       30.17F
WICHITA        PTSUNNY   45  26  47 NW6       30.25F
DODGE CITY     SUNNY     50  32  50 SW10      30.24F
OKLAHOMA CITY  MOSUNNY   49  17  28 SW13      30.31F
DALLAS         PTSUNNY   55  20  25 S8G18     30.37F
AMARILLO       SUNNY     55  23  28 N3        30.30F
$$




USA.gov is the U.S. government's official web portal to all federal, state and local government web resources and services.